Regional Weather Roundup
Issued by NWS

Home | Current Version | Previous Version | Text Only | Print | Product List | Glossary Off
Versions: 1 2 3 4 5 6 7 8 9 10 11 12 13 14 15 16 17 18 19 20 21 22 23 24 25 26 27 28 29 30 31 32 33 34 35 36 37 38 39 40 41 42 43 44 45 46 47 48 49 50

000
ASUS43 KMPX 121601
RWRMN
WEATHER ROUNDUP FOR MINNESOTA
NATIONAL WEATHER SERVICE TWIN CITIES/CHANHASSEN MN
1100 AM CDT SAT JUL 12 2014


NOTE: "FAIR" INDICATES FEW OR NO CLOUDS BELOW 12,000 FEET WITH NO
SIGNIFICANT WEATHER AND/OR OBSTRUCTIONS TO VISIBILITY. N/A MEANS
CURRENT SKY AND/OR WEATHER CONDITIONS ARE NOT AVAILABLE.

MNZ060>063-068>070-121700-
   Twin Cities Metro

CITY           SKY/WX    TMP DP  RH WIND       PRES   REMARKS
TWIN CITIES    CLOUDY    75  70  84 CALM      29.98S HAZE
ST PAUL        CLOUDY    74  70  87 SE3       29.98S FOG
CRYSTAL        CLOUDY    75  68  78 CALM      29.97S
BLAINE         CLOUDY    75  73  94 CALM      29.98R
LAKEVILLE      CLOUDY    72  70  94 CALM      29.98S FOG
EDEN PRAIRIE   CLOUDY    76  68  76 N7        29.97S
SOUTH ST PAUL  CLOUDY    73  70  89 CALM      29.97F FOG
LAKE ELMO      CLOUDY    72  70  94 CALM      29.99S FOG
$$
MNZ001>005-007-008-013>017-022>024-027-028-121700-
   Northwest Minnesota

CITY           SKY/WX    TMP DP  RH WIND       PRES   REMARKS
BEMIDJI        PTSUNNY   71  55  56 CALM      30.02F
HALLOCK        MOSUNNY   72  55  56 W10       30.00F
ROSEAU         PTSUNNY   72  59  64 SW12      30.00F
WARROAD        MOSUNNY   72  57  60 SW10      30.00F
THIEF RVR FALL PTSUNNY   70  57  64 SW9       30.03F
CROOKSTON      PTSUNNY   70  57  64 SW9       30.04S
FOSSTON        CLOUDY    70  55  60 SW8       30.05S
DETROIT LAKES  CLOUDY    70  59  68 NW6       30.06S
MOORHEAD       CLOUDY    72  63  73 W5        30.04F
PARK RAPIDS    CLOUDY    69  59  70 SW3       30.04S
$$
MNZ006-009>011-018-025>026-121700-
   North Central Minnesota

CITY           SKY/WX    TMP DP  RH WIND       PRES   REMARKS
BAUDETTE       PTSUNNY   71  53  52 S3        30.01F
FLAG ISLAND    MOSUNNY   70  57  64 S10       29.98F
INTL FALLS     MOSUNNY   69  50  50 CALM      30.00F
WASKISH        CLOUDY    72  61  68 CALM      30.02S
BIG FORK       MOSUNNY   72  54  53 SW2       30.02F
LONGVILLE      CLOUDY    70  61  73 CALM      30.02S
GRAND RAPIDS   PTSUNNY   70  54  56 CALM      30.01F
CRANE LAKE     MOSUNNY   68  57  68 CALM      30.02F
ORR            MOSUNNY   70  52  52 NW5       29.99S
COOK           MOSUNNY   72  54  53 SW5       30.01F
$$
MNZ012-019>021-037-121700-
   Northeast Minnesota

CITY           SKY/WX    TMP DP  RH WIND       PRES   REMARKS
DULUTH         PTSUNNY   72  57  59 N5        29.99F
ELY            MOSUNNY   70  54  56 NW5       30.01R
HIBBING        PTSUNNY   73  53  49 CALM      30.01F
EVELETH        PTSUNNY   72  54  53 W6        30.02S
DULUTH HARBOR  PTSUNNY   70  59  68 SE6       29.99S
TWO HARBORS    MOSUNNY   72  55  56 CALM      29.97F
SILVER BAY     MOSUNNY   72  59  64 W3        29.97F
GRAND MARAIS     N/A     64  54  69 SW3       29.96F
G MARAIS ARPRT PTSUNNY   66  52  59 S3        30.01F
$$
MNZ029>031-032-039>041-046>048-054>057-064-121700-
   West Central Minnesota

CITY           SKY/WX    TMP DP  RH WIND       PRES   REMARKS
FERGUS FALLS   CLOUDY    68  61  77 NW7       30.05R
WHEATON        CLOUDY    66  61  82 W8        30.09R
MORRIS         CLOUDY    70  63  78 SW10      30.05R
ALEXANDRIA     CLOUDY    70  59  68 E3        30.05S
ELBOW LAKE     FAIR      68  61  77 VRB3      30.04S
WADENA         CLOUDY    66  61  82 CALM      30.03S
GLENWOOD       CLOUDY    70  61  73 CALM      30.04S
APPLETON       LGT RAIN  66  63  88 W9        30.06F
BENSON         DRIZZLE   70  61  73 W9        30.05R
ORTONVILLE     LGT RAIN  68  61  77 W9        30.07S
MADISON        LGT RAIN  68  64  88 NW7       30.06S
WILLMAR        RAIN      68  64  88 CALM      30.04F
$$
MNZ033>034-036-042>043-049>051-058-059-121700-
   Central Minnesota

CITY           SKY/WX    TMP DP  RH WIND       PRES   REMARKS
ST CLOUD       CLOUDY    72  63  73 CALM      29.99F
SAUK CENTRE    FAIR      67  62  83 CALM      30.03S
PAYNESVILLE    HVY RAIN  66  62  86 SW7       30.04R
AITKIN         CLOUDY    72  61  68 CALM      30.00F
PINE RIVER     CLOUDY    70  59  68 CALM      30.05F
BRAINERD       CLOUDY    75  59  57 CALM      30.01F
STAPLES        CLOUDY    68  61  77 CALM      30.03S
LONG PRAIRIE   FAIR      66  61  82 CALM      30.03F
LITTLE FALLS   CLOUDY    68  59  73 CALM      30.01S
LITCHFIELD     LGT RAIN  70  68  94 W7        30.03R
BUFFALO        DRIZZLE   72  65  79 CALM      30.01R
MAPLE LAKE     CLOUDY    71  66  84 N3        30.01S
$$
MNZ037-044-045-052-053-121700-
   East Central Minnesota

CITY           SKY/WX    TMP DP  RH WIND       PRES   REMARKS
PRINCETON      CLOUDY    72  64  78 N3        29.99F
MORA           CLOUDY    70  61  73 CALM      30.01F
CAMBRIDGE      CLOUDY    73  63  68 CALM      29.98R
RUSH CITY      CLOUDY    72  64  76 CALM      29.99S
MOOSE LAKE     CLOUDY    70  59  68 CALM      29.99S
HINCKLEY       FAIR      70  64  83 N6        29.99F
CLOQUET        CLOUDY    72  55  56 CALM      30.01S
MCGREGOR       CLOUDY    70  59  68 CALM      30.02S
$$
MNZ071>073-080-081-089-090-097-098-121700-
   Southwest Minnesota

CITY           SKY/WX    TMP DP  RH WIND       PRES   REMARKS
MONTEVIDEO     LGT RAIN  66  64  94 NW5       30.08R
GRANITE FALLS  RAIN      67  65  94 W7        30.07R
CANBY          RAIN      64  61  90 NW13G18   30.07S
MARSHALL       CLOUDY    68  64  88 N13       30.06R
REDWOOD FALLS  RAIN      67  65  93 W12       30.03R FOG
OLIVIA         RAIN      68  63  83 NW8       30.02F
PIPESTONE      CLOUDY    72  64  78 W7        30.05R
WINDOM         CLOUDY    77  66  69 NW13      30.04R
WORTHINGTON    CLOUDY    72  70  94 W7        30.06R
JACKSON        LGT RAIN  72  66  83 W6        30.04R
TRACY          LGT RAIN  69  66  91 N9        30.05R
SLAYTON        CLOUDY    73  66  76 CALM      30.06R
$$
MNZ065>067-074>077-082>085-091>093-121700-
   South Central Minnesota

CITY           SKY/WX    TMP DP  RH WIND       PRES   REMARKS
MANKATO        CLOUDY    73  68  83 S8        29.99R
NEW ULM        HVY RAIN  68  66  94 SW9       30.00R
ST JAMES       CLOUDY    75  70  83 CALM      30.03R HAZE
FAIRMONT       CLOUDY    72  64  78 SW7       30.03R
GLENCOE        CLOUDY    72  65  77 N7        30.00R
FARIBAULT      CLOUDY    79  70  73 S6        29.99R
OWATONNA       LGT RAIN  73  70  88 CALM      30.00R
WASECA         RAIN      72  68  88 S6        30.02F
ALBERT LEA     LGT RAIN  73  72  94 N5        29.99F
$$
MNZ078>079-086>088-094>096-121700-
   Southeast Minnesota

CITY           SKY/WX    TMP DP  RH WIND       PRES   REMARKS
ROCHESTER      LGT RAIN  73  70  90 CALM      30.01F FOG
RED WING       CLOUDY    73  70  88 CALM      29.97S
STANTON        CLOUDY    75  70  84 CALM      29.97S HAZE
DODGE CENTER   LGT RAIN  73  70  88 CALM      30.01R
WINONA         CLOUDY    73  70  88 N3        29.98S
AUSTIN         LGT RAIN  73  72  94 NW3       29.99F
PRESTON        LGT RAIN  73  70  91 NW3       29.99F
$$
ABBREVIATIONS USED IN REMARKS
   TC - TEMPERATURES IN CELSIUS
  WCI - WIND CHILL INDEX
   HX - HEAT INDEX
  VSB - VISIBILITY
$$



USA.gov is the U.S. government's official web portal to all federal, state and local government web resources and services.